TimeEST,TemperatureF,Dew PointF,Humidity,Sea Level PressureIn,VisibilityMPH,Wind Direction,Wind SpeedMPH,Gust SpeedMPH,PrecipitationIn,Events,Conditions,WindDirDegrees,DateUTC
12:53 AM,30.0,25.0,82,30.52,10.0,Calm,Calm,-,N/A,,Clear,0,2013-01-11 05:53:00
1:53 AM,30.0,26.1,85,30.51,10.0,Calm,Calm,-,N/A,,Clear,0,2013-01-11 06:53:00
2:53 AM,28.9,25.0,85,30.49,10.0,NW,3.5,-,N/A,,Clear,310,2013-01-11 07:53:00
3:53 AM,30.9,26.1,82,30.46,10.0,Calm,Calm,-,N/A,,Clear,0,2013-01-11 08:53:00
4:53 AM,30.9,27.0,85,30.45,10.0,Calm,Calm,-,N/A,,Clear,0,2013-01-11 09:53:00
5:53 AM,32.0,27.0,82,30.46,10.0,Calm,Calm,-,N/A,,Clear,0,2013-01-11 10:53:00
6:53 AM,30.9,27.0,85,30.47,10.0,Calm,Calm,-,N/A,,Clear,0,2013-01-11 11:53:00
7:53 AM,30.9,27.0,85,30.46,10.0,Calm,Calm,-,N/A,,Clear,0,2013-01-11 12:53:00
8:53 AM,34.0,28.9,82,30.46,10.0,Calm,Calm,-,N/A,,Partly Cloudy,0,2013-01-11 13:53:00
9:53 AM,36.0,28.9,76,30.45,10.0,Calm,Calm,-,N/A,,Mostly Cloudy,0,2013-01-11 14:53:00
10:53 AM,39.9,30.0,68,30.41,10.0,Calm,Calm,-,0.00,,Mostly Cloudy,0,2013-01-11 15:53:00
11:53 AM,42.1,30.9,65,30.35,10.0,NE,3.5,-,N/A,,Overcast,50,2013-01-11 16:53:00
12:53 PM,42.1,33.1,70,30.33,10.0,Calm,Calm,-,0.00,,Overcast,0,2013-01-11 17:53:00
1:53 PM,44.1,37.0,76,30.30,10.0,Calm,Calm,-,0.01,,Overcast,0,2013-01-11 18:53:00
2:53 PM,46.0,37.9,73,30.27,10.0,Calm,Calm,-,N/A,,Overcast,0,2013-01-11 19:53:00
3:53 PM,45.0,39.0,80,30.24,10.0,Variable,4.6,19.6,N/A,,Overcast,0,2013-01-11 20:53:00
4:53 PM,43.0,41.0,93,30.22,5.0,ESE,3.5,-,0.02,Rain,Light Rain,120,2013-01-11 21:53:00
5:53 PM,44.1,42.1,93,30.18,6.0,ESE,4.6,-,0.04,Rain,Light Rain,110,2013-01-11 22:53:00
6:45 PM,44.6,42.8,93,30.18,2.5,NW,3.5,-,0.14,Rain,Rain,320,2013-01-11 23:45:00
6:53 PM,44.1,43.0,96,30.18,1.8,Calm,Calm,-,0.20,Rain,Heavy Rain,0,2013-01-11 23:53:00
7:14 PM,44.6,42.8,93,30.18,1.8,NNW,5.8,-,0.05,Rain,Light Rain,330,2013-01-12 00:14:00
7:21 PM,42.8,42.8,100,30.18,2.5,NW,3.5,-,0.07,Rain,Rain,310,2013-01-12 00:21:00
7:37 PM,42.8,42.8,100,30.18,1.8,Calm,Calm,-,0.09,Rain,Light Rain,0,2013-01-12 00:37:00
7:51 PM,42.8,42.8,100,30.17,2.0,Calm,Calm,-,0.10,Rain,Light Rain,0,2013-01-12 00:51:00
7:53 PM,43.0,43.0,100,30.17,2.0,Calm,Calm,-,0.10,Rain,Light Rain,0,2013-01-12 00:53:00
8:13 PM,42.8,42.8,100,30.15,2.5,Calm,Calm,-,0.00,Rain,Light Rain,0,2013-01-12 01:13:00
8:26 PM,42.8,42.8,100,30.15,1.5,Calm,Calm,-,0.02,Rain,Light Rain,0,2013-01-12 01:26:00
8:39 PM,44.6,42.8,93,30.13,3.0,Calm,Calm,-,0.03,Rain,Light Rain,0,2013-01-12 01:39:00
8:53 PM,44.1,43.0,96,30.14,4.0,ENE,3.5,-,0.03,,Overcast,70,2013-01-12 01:53:00
9:53 PM,44.1,43.0,96,30.12,7.0,Calm,Calm,-,0.05,,Overcast,0,2013-01-12 02:53:00
10:53 PM,44.1,43.0,96,30.10,7.0,NNW,3.5,-,0.00,,Overcast,340,2013-01-12 03:53:00
11:53 PM,43.0,43.0,100,30.09,4.0,Calm,Calm,-,N/A,,Overcast,0,2013-01-12 04:53:00